Weather History for Bluefield, WV

Change the Weather History Date:

Tuesday, February 5, 2013

  Actual Average Record
Temperature  
Mean Temperature 40 °F 36 °F  
Max Temperature 43 °F 44 °F 65 °F (1991)
Min Temperature 37 °F 27 °F -9 °F (1996)
Degree Days  
Heating Degree Days 25 29  
Month to date heating degree days 184 149  
Since 1 July heating degree days 2760 2869  
Cooling Degree Days 0 0  
Month to date cooling degree days 0 0  
Year to date cooling degree days 1 0  
Moisture  
Dew Point 29 °F    
Average Humidity 61    
Maximum Humidity 76    
Minimum Humidity 45    
Precipitation  
Precipitation 0.00 in 0.10 in 1.20 in (2010)
Month to date precipitation 0.41 0.48  
Year to date precipitation 6.41 3.38  
Snow  
Snow 0.00 in - - ()
Month to date snowfall 6.0  
Since 1 July snowfall 34.5  
Snow Depth 2.00 in    
Sea Level Pressure  
Sea Level Pressure 29.88 in    
Wind  
Wind Speed 10 mph (WSW)    
Max Wind Speed 18 mph    
Max Gust Speed 28 mph    
Visibility 10 miles    
Events      
T = Trace of Precipitation, MM = Missing Value Source: NWS Daily Summary

Daily Weather History Graph

Daily Weather History Graph

Search for Another Location

Airport:

Trip Planner

Search our weather history database for the weather conditions in past years. The results will help you decide how hot, cold, wet, or windy it might be!

Date:

Astronomy

Feb. 05, 2013 Rise Set
Actual Time 7:24 AM EST 5:54 PM EST
Civil Twilight 6:56 AM EST 6:21 PM EST
Nautical Twilight 6:25 AM EST 6:52 PM EST
Astronomical Twilight 5:55 AM EST 7:22 PM EST
Moon 3:02 AM EST (2/5) 1:12 PM EST (2/5)
Length of Visible Light 11h 24m
Length of Day
10h 29m
Waning Crescent, 27% of the Moon is Illuminated
Feb 5
Waning Crescent
Feb 10
New
Feb 17
First Quarter
Feb 25
Full
Mar 4
Last Quarter

Hourly Weather History & Observations

Time (EST) Temp. Windchill Dew Point Humidity Pressure Visibility Wind Dir Wind Speed Gust Speed Precip Events Conditions
12:52 AM 39.9 °F 32.1 °F 23.0 °F 51% 29.88 in 10.0 mi WSW 13.8 mph - N/A   Overcast
1:52 AM 39.9 °F 35.8 °F 21.9 °F 49% 29.86 in 10.0 mi West 5.8 mph - N/A   Overcast
2:52 AM 39.0 °F 32.8 °F 21.9 °F 50% 29.86 in 10.0 mi WSW 9.2 mph - N/A   Overcast
3:52 AM 39.0 °F 32.8 °F 23.0 °F 53% 29.86 in 10.0 mi WSW 9.2 mph - N/A   Overcast
4:52 AM 39.0 °F 32.8 °F 24.1 °F 55% 29.85 in 10.0 mi WSW 9.2 mph - N/A   Overcast
5:34 AM 37.4 °F 30.3 °F 26.6 °F 65% 29.84 in 10.0 mi WSW 10.4 mph - N/A   Overcast
5:52 AM 37.9 °F 30.5 °F 26.1 °F 62% 29.86 in 10.0 mi WSW 11.5 mph - N/A   Overcast
6:52 AM 37.0 °F 32.4 °F 28.0 °F 70% 29.86 in 10.0 mi SW 5.8 mph - N/A   Overcast
7:52 AM 37.9 °F 32.7 °F 28.9 °F 70% 29.88 in 10.0 mi West 6.9 mph - N/A   Overcast
8:52 AM 37.9 °F 31.5 °F 28.0 °F 68% 29.89 in 10.0 mi WSW 9.2 mph - N/A   Overcast
9:52 AM 37.9 °F 30.5 °F 30.0 °F 73% 29.91 in 10.0 mi WSW 11.5 mph - N/A   Overcast
10:52 AM 39.0 °F 31.8 °F 28.9 °F 67% 29.91 in 10.0 mi WSW 11.5 mph 18.4 mph N/A   Overcast
11:52 AM 39.0 °F 32.3 °F 30.0 °F 70% 29.91 in 10.0 mi WSW 10.4 mph - N/A   Overcast
12:52 PM 41.0 °F 34.3 °F 30.0 °F 65% 29.88 in 10.0 mi WSW 11.5 mph 19.6 mph N/A   Overcast
1:52 PM 42.1 °F 35.2 °F 30.0 °F 62% 29.87 in 10.0 mi West 12.7 mph 24.2 mph N/A   Overcast
2:14 PM 42.8 °F 36.6 °F 30.2 °F 61% 29.86 in 10.0 mi WSW 11.5 mph 19.6 mph N/A   Overcast
2:38 PM 42.8 °F 35.8 °F 30.2 °F 61% 29.87 in 10.0 mi WSW 13.8 mph 20.7 mph N/A   Overcast
2:52 PM 42.1 °F 35.2 °F 30.0 °F 62% 29.88 in 10.0 mi West 12.7 mph 18.4 mph N/A   Overcast
3:36 PM 42.8 °F 36.6 °F 30.2 °F 61% 29.87 in 10.0 mi West 11.5 mph - N/A   Overcast
3:52 PM 43.0 °F 37.7 °F 30.0 °F 60% 29.88 in 10.0 mi West 9.2 mph - N/A   Overcast
4:13 PM 42.8 °F 38.0 °F 30.2 °F 61% 29.87 in 10.0 mi WSW 8.1 mph - N/A   Mostly Cloudy
4:52 PM 43.0 °F 39.5 °F 30.0 °F 60% 29.89 in 10.0 mi SW 5.8 mph 20.7 mph N/A   Mostly Cloudy
5:02 PM 42.8 °F 37.5 °F 30.2 °F 61% 29.88 in 10.0 mi WSW 9.2 mph - N/A   Mostly Cloudy
5:11 PM 42.8 °F 37.5 °F 30.2 °F 61% 29.88 in 10.0 mi WSW 9.2 mph - N/A   Mostly Cloudy
6:52 PM 39.0 °F 33.4 °F 30.9 °F 73% 29.91 in 10.0 mi WSW 8.1 mph - N/A   Clear
7:52 PM 39.0 °F 33.4 °F 30.9 °F 73% 29.90 in 10.0 mi West 8.1 mph - N/A   Clear
8:52 PM 41.0 °F 32.8 °F 30.9 °F 67% 29.91 in 10.0 mi West 16.1 mph - N/A   Overcast
9:52 PM 43.0 °F 35.7 °F 30.9 °F 62% 29.91 in 10.0 mi West 15.0 mph - N/A   Overcast
10:52 PM 43.0 °F 36.0 °F 30.9 °F 62% 29.92 in 10.0 mi West 13.8 mph 20.7 mph N/A   Overcast
11:52 PM 43.0 °F 36.4 °F 30.9 °F 62% 29.93 in 10.0 mi West 12.7 mph - N/A   Mostly Cloudy